time_stamp(utc),avg(mph),gust(mph),direction(deg),12m_air_temp(f),sonic_u(cm/s),sonic_v(cm/s),sonic_w(cm/s),pressure,2m_air_temp(f),pyranometer(W/m^2)
"2020-05-08 00:03:21+00",13.0,14.0,,60,-532,-168,10,1009.46,58.5,0
"2020-05-08 00:08:21+00",10.8,11.8,,59.4,-462,-234,9,1009.53,58.1,0
"2020-05-08 00:13:21+00",12.4,13.4,,59.2,-520,-251,8,1009.65,57.6,0
"2020-05-08 00:18:21+00",12.6,14.6,,59.3,-545,-281,3,1009.67,57.4,0
"2020-05-08 00:23:21+00",12.0,13.0,,59,-468,-311,7,1009.77,57.2,0
"2020-05-08 00:28:21+00",13.2,15.2,,58.9,-518,-344,5,1009.78,57.2,0
"2020-05-08 00:33:21+00",12.5,14.5,,58.8,-495,-321,9,1009.78,57.2,0
"2020-05-08 00:38:21+00",12.0,13.0,,58.7,-478,-311,16,1009.86,57.1,0
"2020-05-08 00:43:21+00",12.3,14.3,,58.6,-470,-323,11,1009.99,57.1,0
"2020-05-08 00:48:21+00",12.5,14.5,,58.5,-436,-350,14,1009.99,57,0
"2020-05-08 00:53:21+00",13.1,14.1,,58.5,-429,-381,9,1010.08,57,0
"2020-05-08 00:58:21+00",13.5,14.5,,58.5,-428,-405,5,1010.09,57,0
"2020-05-08 01:03:21+00",11.9,13.9,,58.2,-364,-379,5,1010.21,56.9,0
"2020-05-08 01:08:21+00",13.0,14.0,,58.1,-387,-411,5,1010.23,56.8,0
"2020-05-08 01:13:21+00",13.4,14.4,,58,-396,-436,6,1010.29,56.7,0
"2020-05-08 01:18:21+00",13.4,14.4,,58,-393,-469,1,1010.31,56.7,0
"2020-05-08 01:23:21+00",13.1,14.1,,57.6,-376,-476,13,1010.24,56.5,0
"2020-05-08 01:28:21+00",12.5,13.5,,57.6,-371,-461,5,1010.24,56.4,0
"2020-05-08 01:33:21+00",12.3,13.3,,57.3,-319,-475,1,1010.19,56.2,0
"2020-05-08 01:38:21+00",12.7,13.7,,56.9,-219,-513,-1,1010.19,56,0
"2020-05-08 01:43:21+00",13.6,14.6,,56.1,-213,-554,-2,1010.3,55.4,0
"2020-05-08 01:48:21+00",16.4,18.4,,55.8,-252,-664,-3,1010.31,55.1,0
"2020-05-08 01:53:21+00",13.8,15.8,,55.7,-206,-565,5,1010.34,55,0
"2020-05-08 01:58:21+00",14.4,16.4,,55.4,-236,-591,-9,1010.46,54.8,0
"2020-05-08 02:03:21+00",15.0,16.0,,55.5,-223,-616,-6,1010.51,54.8,0
"2020-05-08 02:08:21+00",15.6,16.6,,55.5,-275,-629,-5,1010.49,54.7,0
"2020-05-08 02:13:21+00",16.3,17.3,,55.5,-275,-663,-8,1010.43,54.7,0
"2020-05-08 02:18:21+00",17.7,18.7,,55.6,-255,-724,-3,1010.35,54.8,0
"2020-05-08 02:23:21+00",16.8,18.8,,55.6,-336,-681,2,1010.37,54.8,0
"2020-05-08 02:28:21+00",16.6,18.6,,55.6,-271,-679,-3,1010.39,54.8,0
"2020-05-08 02:33:21+00",16.4,18.4,,55.6,-296,-662,1,1010.41,54.9,0
"2020-05-08 02:38:21+00",17.3,19.3,,55.9,-367,-690,12,1010.35,54.9,0
"2020-05-08 02:43:21+00",15.5,17.5,,55.9,-277,-626,-2,1010.27,55,0
"2020-05-08 02:48:21+00",16.7,18.7,,56.1,-392,-648,10,1010.29,55.1,0
"2020-05-08 02:53:21+00",17.8,19.8,,56.3,-421,-708,7,1010.28,55.3,0
"2020-05-08 02:58:21+00",19.0,20.0,,56.6,-487,-725,10,1010.21,55.6,0
"2020-05-08 03:03:21+00",20.1,22.1,,56.6,-564,-749,12,1010.09,55.7,0
"2020-05-08 03:08:21+00",19.8,24.8,,56.4,-577,-708,7,1010.08,55.6,0
"2020-05-08 03:13:21+00",19.4,21.4,,56.3,-550,-727,24,1010.08,55.6,0
"2020-05-08 03:18:21+00",17.9,19.9,,56.2,-495,-655,10,1010.09,55.4,0
"2020-05-08 03:23:21+00",17.6,19.6,,56,-492,-648,1,1010.07,55.2,0
"2020-05-08 03:28:21+00",18.0,20.0,,55.9,-534,-626,6,1010.19,55.1,0
"2020-05-08 03:33:21+00",17.7,20.7,,55.8,-506,-644,9,1010.05,55.1,0
"2020-05-08 03:38:21+00",19.3,22.3,,55.9,-539,-707,5,1010.03,55.1,0
"2020-05-08 03:43:21+00",19.6,20.6,,55.9,-567,-703,4,1010.05,55,0
"2020-05-08 03:48:21+00",19.0,22.0,,56,-559,-652,15,1010.02,55.1,0
"2020-05-08 03:53:21+00",18.0,20.0,,55.8,-531,-628,12,1010.02,55,0
"2020-05-08 03:58:21+00",18.9,21.9,,55.8,-552,-667,7,1009.95,55,0
"2020-05-08 04:03:21+00",20.4,25.4,,55.8,-593,-705,10,1009.98,54.9,0
"2020-05-08 04:08:21+00",18.8,21.8,,55.5,-566,-626,10,1010.01,54.8,0
"2020-05-08 04:13:21+00",20.2,23.2,,55.5,-588,-712,8,1009.97,54.7,0
"2020-05-08 04:18:21+00",20.5,23.5,,55.4,-606,-686,10,1010.05,54.7,0
"2020-05-08 04:23:21+00",19.9,22.9,,55.3,-595,-665,2,1009.94,54.6,0
"2020-05-08 04:28:21+00",19.5,23.5,,55.1,-596,-630,21,1009.9,54.4,0
"2020-05-08 04:33:21+00",17.7,19.7,,55,-548,-565,8,1010.07,54.2,0
"2020-05-08 04:38:21+00",19.3,22.3,,55,-592,-643,12,1009.99,54.2,0
"2020-05-08 04:43:21+00",19.3,22.3,,55,-595,-620,14,1010.01,54.2,0
"2020-05-08 04:48:21+00",19.0,21.0,,54.8,-578,-620,9,1009.94,54.1,0
"2020-05-08 04:53:21+00",19.4,22.4,,54.8,-596,-633,8,1009.95,54,0
"2020-05-08 04:58:21+00",19.4,22.4,,54.8,-593,-620,2,1009.91,54,0
"2020-05-08 05:03:21+00",19.2,22.2,,54.6,-564,-657,17,1009.82,53.9,0
"2020-05-08 05:08:21+00",19.2,23.2,,54.5,-597,-648,11,1009.8,53.7,0
"2020-05-08 05:13:21+00",19.3,22.3,,54.4,-577,-629,10,1009.88,53.6,0
"2020-05-08 05:18:21+00",17.5,21.5,,54.4,-527,-572,15,1009.79,53.5,0
"2020-05-08 05:23:21+00",16.1,18.1,,54.2,-495,-514,21,1009.72,53.4,0
"2020-05-08 05:28:21+00",18.2,20.2,,54.2,-570,-561,-7,1009.74,53.2,0
"2020-05-08 05:33:21+00",17.8,19.8,,54.2,-543,-568,4,1009.65,53.2,0
"2020-05-08 05:38:21+00",15.8,17.8,,54,-472,-528,19,1009.56,53.1,0
"2020-05-08 05:43:21+00",16.2,18.2,,54,-481,-569,3,1009.61,53,0
"2020-05-08 05:48:21+00",15.4,18.4,,53.9,-451,-528,-2,1009.55,52.9,0
"2020-05-08 05:53:21+00",15.0,16.0,,53.8,-452,-505,16,1009.44,52.9,0
"2020-05-08 05:58:21+00",15.5,18.5,,53.8,-464,-524,10,1009.41,52.9,0
"2020-05-08 06:03:21+00",14.6,18.6,,53.9,-422,-502,27,1009.37,53,0
"2020-05-08 06:08:21+00",14.0,15.0,,53.9,-407,-486,19,1009.42,53.1,0
"2020-05-08 06:13:21+00",15.7,18.7,,54,-468,-518,8,1009.38,53.2,0
"2020-05-08 06:18:21+00",14.7,16.7,,54,-417,-521,15,1009.38,53.3,0
"2020-05-08 06:23:21+00",13.7,16.7,,53.9,-393,-493,15,1009.36,53.3,0
"2020-05-08 06:28:21+00",14.6,16.6,,54,-440,-491,1,1009.34,53.2,0
"2020-05-08 06:33:21+00",11.8,13.8,,53.9,-466,275,39,1009.8,53.1,0
"2020-05-08 06:38:21+00",11.5,13.5,,54.6,-499,125,16,1009.88,53.2,0
"2020-05-08 06:43:21+00",6.6,7.6,,54.8,-275,104,17,1009.95,53.2,0
"2020-05-08 06:48:21+00",2.8,3.8,,54.7,-112,1,0,1009.66,52.9,0
"2020-05-08 06:53:21+00",5.5,7.5,,54.5,-71,231,2,1009.8,52.5,0
"2020-05-08 06:58:21+00",4.9,5.9,,54.1,-48,207,-2,1009.81,52.1,0
"2020-05-08 07:03:21+00",5.8,5.8,,53.5,-4,248,3,1009.81,51.5,0
"2020-05-08 07:08:21+00",5.2,6.2,,53.4,-34,215,-4,1009.75,51,0
"2020-05-08 07:13:21+00",5.3,6.3,,53.9,-158,167,-12,1009.67,50.9,0
"2020-05-08 07:18:21+00",8.1,10.1,,54.6,-362,86,0,1009.84,51.1,0
"2020-05-08 07:23:21+00",12.1,13.1,,55.5,-507,-136,1,1009.81,51.7,0
"2020-05-08 07:28:21+00",11.0,13.0,,55.9,-454,-223,7,1009.61,52,0
"2020-05-08 07:33:21+00",11.0,12.0,,55.8,-418,-285,8,1009.5,51.9,0
"2020-05-08 07:38:21+00",9.4,9.4,,55.2,-363,-239,9,1009.54,51.7,0
"2020-05-08 07:43:21+00",11.0,13.0,,54.4,-445,-244,22,1009.51,51.4,0
"2020-05-08 07:48:21+00",10.2,12.2,,54.9,-426,-249,8,1009.52,51.5,0
"2020-05-08 07:53:21+00",9.5,10.5,,54.9,-386,-237,7,1009.55,51.7,0
"2020-05-08 07:58:21+00",9.6,11.6,,55.1,-384,-244,8,1009.58,51.8,0
"2020-05-08 08:03:21+00",10.9,11.9,,55,-359,-312,-3,1009.56,52,0
"2020-05-08 08:08:21+00",12.3,14.3,,55,-387,-361,14,1009.58,52.2,0
"2020-05-08 08:13:21+00",12.3,14.3,,54.9,-447,-332,8,1009.81,52.5,0
"2020-05-08 08:18:21+00",11.3,12.3,,54.8,-400,-315,4,1009.87,52.6,0
"2020-05-08 08:23:21+00",11.6,12.6,,54.7,-371,-333,6,1009.87,52.8,0
"2020-05-08 08:28:21+00",10.9,12.9,,54.5,-385,-305,7,1009.94,52.8,0
"2020-05-08 08:33:21+00",11.6,12.6,,54.5,-395,-327,6,1009.93,52.8,0
"2020-05-08 08:38:21+00",11.5,12.5,,54.4,-389,-322,10,1009.93,52.8,0
"2020-05-08 08:43:21+00",10.9,12.9,,54.4,-437,-277,11,1010,52.7,0
"2020-05-08 08:48:21+00",10.7,11.7,,54.6,-423,-277,4,1010.11,52.8,0
"2020-05-08 08:53:21+00",10.9,12.9,,54.5,-445,-135,21,1010.25,52.8,0
"2020-05-08 08:58:21+00",11.5,12.5,,54.4,-456,236,32,1010.52,52.8,0
"2020-05-08 09:03:21+00",12.4,14.4,,52.2,-425,347,19,1010.79,52,0
"2020-05-08 09:08:21+00",7.6,8.6,,52.6,-313,158,10,1010.78,51.7,0
"2020-05-08 09:13:21+00",11.0,13.0,,52.9,-378,324,37,1010.9,51.6,0
"2020-05-08 09:18:21+00",8.6,10.6,,52.7,-335,203,4,1010.74,51.6,0
"2020-05-08 09:23:21+00",8.7,9.7,,52.6,-365,147,8,1010.82,51.5,0
"2020-05-08 09:28:21+00",8.3,9.3,,52.4,-322,188,14,1010.75,51.4,0
"2020-05-08 09:33:21+00",7.9,8.9,,52.4,-270,232,23,1010.89,51.3,0
"2020-05-08 09:38:21+00",7.6,8.6,,52.3,-283,193,16,1010.87,51.2,0
"2020-05-08 09:43:21+00",5.9,6.9,,52.1,-159,203,8,1010.94,51.2,0
"2020-05-08 09:48:21+00",6.8,7.8,,51.7,-226,200,23,1011.01,50.9,0
"2020-05-08 09:53:21+00",7.4,8.4,,51.5,-248,218,13,1011.04,50.7,0
"2020-05-08 09:58:21+00",8.4,8.4,,51.4,-250,277,14,1011.02,50.5,0
"2020-05-08 10:03:21+00",8.1,9.1,,51.1,-209,289,14,1010.99,50.3,0
"2020-05-08 10:08:21+00",9.9,10.9,,50.9,-241,369,26,1011.11,50,0
"2020-05-08 10:13:21+00",9.8,10.8,,50.8,-236,362,20,1011.28,49.8,0
"2020-05-08 10:18:21+00",8.3,9.3,,50.5,-165,334,14,1011.22,49.7,0
"2020-05-08 10:23:21+00",7.8,8.8,,50.3,-127,316,10,1011.31,49.5,0
"2020-05-08 10:28:21+00",6.5,7.5,,50.1,-104,261,8,1011.37,49.3,0
"2020-05-08 10:33:21+00",4.8,5.8,,49.9,-73,191,3,1011.37,49.2,0
"2020-05-08 10:38:21+00",3.6,3.6,,49.8,-24,148,1,1011.29,49.2,0
"2020-05-08 10:43:21+00",2.5,2.5,,49.8,-26,87,0,1011.45,49.2,0
"2020-05-08 10:48:21+00",2.7,3.7,,49.8,-55,89,3,1011.45,49.3,0
"2020-05-08 10:53:21+00",3.8,3.8,,49.9,-60,151,6,1011.4,49.3,0
"2020-05-08 10:58:21+00",5.0,6.0,,50,-42,210,-1,1011.49,49.4,0
"2020-05-08 11:03:21+00",4.2,5.2,,50.2,6,164,2,1011.43,49.7,0
"2020-05-08 11:08:21+00",3.5,4.5,,50.5,83,110,4,1011.33,50.3,0
"2020-05-08 11:13:21+00",4.0,5.0,,51.1,111,122,6,1011.25,51.4,0
"2020-05-08 11:18:21+00",4.5,5.5,,51.4,70,164,7,1011.25,52.2,0
"2020-05-08 11:23:21+00",6.0,7.0,,51.5,83,232,1,1011.14,52.7,0
"2020-05-08 11:28:21+00",6.8,7.8,,51.6,49,279,3,1011.17,52.8,0
"2020-05-08 11:33:21+00",6.9,8.9,,51.7,44,295,-2,1011.07,52.9,0
"2020-05-08 11:38:21+00",6.4,8.4,,51.8,84,258,4,1011.06,52.8,0
"2020-05-08 11:43:21+00",6.1,10.1,,51.8,70,245,7,1011,52.8,0
"2020-05-08 11:48:21+00",7.9,8.9,,51.8,71,334,-2,1011.01,52.7,0
"2020-05-08 11:53:21+00",8.1,10.1,,51.7,91,334,1,1010.99,52.7,0
"2020-05-08 11:58:21+00",8.5,10.5,,51.7,199,297,-5,1010.82,52.7,0
"2020-05-08 12:03:21+00",9.8,11.8,,51.7,183,387,-11,1010.85,52.8,0
"2020-05-08 12:08:21+00",8.5,10.5,,52,144,308,36,1010.76,53.4,0
"2020-05-08 12:13:21+00",8.9,10.9,,52.6,141,339,6,1010.73,54.4,0
"2020-05-08 12:18:21+00",9.4,10.4,,52.7,161,362,1,1010.69,55,0
"2020-05-08 12:23:21+00",8.4,10.4,,52.5,172,315,4,1010.83,55.1,0
"2020-05-08 12:28:21+00",10.5,12.5,,52.7,184,419,-4,1010.95,55.5,0
"2020-05-08 12:33:21+00",10.5,11.5,,52.7,235,384,-7,1010.89,55.8,0
"2020-05-08 12:38:21+00",11.1,12.1,,52.5,300,370,-6,1010.79,55.6,0
"2020-05-08 12:43:21+00",10.7,11.7,,52.6,257,361,1,1010.88,55.8,0
"2020-05-08 12:48:21+00",11.0,13.0,,52.9,271,388,2,1010.87,55.9,0
"2020-05-08 12:53:21+00",10.5,12.5,,52.9,349,312,23,1010.95,56.1,0
"2020-05-08 12:58:21+00",10.1,12.1,,53.1,358,278,31,1010.92,56.3,0
"2020-05-08 13:03:21+00",11.0,13.0,,53,398,279,-3,1010.92,56.5,0
"2020-05-08 13:08:21+00",9.9,10.9,,53.4,348,270,36,1011.07,56.8,0
"2020-05-08 13:13:21+00",11.6,12.6,,53.2,383,347,20,1011.12,56.6,0
"2020-05-08 13:18:21+00",10.0,11.0,,52.9,345,273,20,1010.96,55.9,0
"2020-05-08 13:23:21+00",10.0,11.0,,52.9,389,216,8,1010.69,56.3,0
"2020-05-08 13:28:21+00",9.4,10.4,,53.1,339,233,28,1010.83,56.3,0
"2020-05-08 13:33:21+00",11.3,12.3,,53.2,479,176,45,1010.72,56.7,0
"2020-05-08 13:38:21+00",10.6,12.6,,53.3,472,94,56,1010.46,57.4,0
"2020-05-08 13:43:21+00",13.3,15.3,,53.1,593,2,39,1010.5,56.9,0
"2020-05-08 13:48:21+00",12.9,14.9,,52.8,592,58,37,1010.38,55.9,0
"2020-05-08 13:53:21+00",13.0,14.0,,52.4,553,231,32,1010.46,56,0
"2020-05-08 13:58:21+00",12.4,13.4,,52.3,530,173,21,1010.48,55.9,0
"2020-05-08 14:03:21+00",12.5,13.5,,52.4,547,135,28,1010.65,56,0
"2020-05-08 14:08:21+00",12.5,13.5,,52.4,533,216,39,1010.63,55.9,0
"2020-05-08 14:13:21+00",13.3,14.3,,52.3,562,234,23,1010.52,55.6,0
"2020-05-08 14:18:21+00",12.9,13.9,,52.4,572,133,41,1010.49,56.1,0
"2020-05-08 14:23:21+00",13.2,15.2,,52.1,566,225,34,1010.52,56.1,0
"2020-05-08 14:28:21+00",14.3,15.3,,52,636,125,11,1010.35,56.2,0
"2020-05-08 14:33:21+00",13.6,14.6,,52,616,62,46,1010.2,56.2,0
"2020-05-08 14:38:21+00",13.9,14.9,,52.1,630,43,31,1010.27,56.5,0
"2020-05-08 14:43:21+00",13.9,14.9,,52.2,620,84,41,1010.17,56.8,0
"2020-05-08 14:48:21+00",15.6,16.6,,51.8,695,34,38,1009.98,56.1,0
"2020-05-08 14:53:21+00",15.2,17.2,,52.1,683,-86,3,1009.85,55.9,0
"2020-05-08 14:58:21+00",13.9,14.9,,52,627,30,29,1010.02,56,0
"2020-05-08 15:03:21+00",12.5,14.5,,51.8,563,52,20,1010.17,56,0
"2020-05-08 15:08:21+00",11.3,12.3,,51.8,497,163,38,1010.31,56.1,0
"2020-05-08 15:13:21+00",13.1,14.1,,51.7,590,79,26,1010.22,56.1,0
"2020-05-08 15:18:21+00",14.3,16.3,,51.5,637,95,30,1010.16,55.8,0
"2020-05-08 15:23:21+00",11.9,13.9,,51.7,530,47,48,1010.03,55.5,0
"2020-05-08 15:28:21+00",14.2,16.2,,52,635,139,32,1010.01,56,0
"2020-05-08 15:33:21+00",14.2,17.2,,52,641,71,40,1009.94,56,0
"2020-05-08 15:38:21+00",14.5,16.5,,51.9,661,91,45,1010.01,55.8,0
"2020-05-08 15:43:21+00",13.4,15.4,,51.9,595,141,59,1009.97,55.6,0
"2020-05-08 15:48:21+00",12.9,14.9,,51.7,558,187,41,1009.68,55.6,0
"2020-05-08 15:53:21+00",15.2,17.2,,51.4,685,67,21,1009.49,55.3,0
"2020-05-08 15:58:21+00",15.0,17.0,,51.6,658,217,43,1009.54,55.3,0
"2020-05-08 16:03:21+00",13.9,15.9,,51.5,597,171,24,1009.61,54.7,0
"2020-05-08 16:08:21+00",13.7,14.7,,51.5,609,106,49,1009.73,54.5,0
"2020-05-08 16:13:21+00",14.9,15.9,,51.1,669,102,31,1009.72,54.1,0
"2020-05-08 16:18:21+00",14.0,15.0,,51.1,631,85,31,1009.65,53.9,0
"2020-05-08 16:23:21+00",13.3,15.3,,51.1,604,51,28,1009.56,53.3,0
"2020-05-08 16:28:21+00",12.9,14.9,,51.2,589,-35,12,1009.66,53.1,0
"2020-05-08 16:33:21+00",14.4,15.4,,51.1,652,83,29,1009.73,53,0
"2020-05-08 16:38:21+00",11.4,14.4,,51.4,502,54,73,1009.55,53.1,0
"2020-05-08 16:43:21+00",14.7,16.7,,51,658,72,37,1009.44,53.2,0
"2020-05-08 16:48:21+00",14.2,16.2,,50.8,623,118,42,1009.56,53.1,0
"2020-05-08 16:53:21+00",13.5,15.5,,50.7,613,43,32,1009.42,52.9,0
"2020-05-08 16:58:21+00",12.3,14.3,,51.1,549,33,57,1009.52,53,0
"2020-05-08 17:03:21+00",15.2,18.2,,50.9,688,86,40,1009.24,53,0
"2020-05-08 17:08:21+00",13.7,15.7,,51,614,14,37,1009.45,52.9,0
"2020-05-08 17:13:21+00",14.9,16.9,,50.9,655,97,32,1009.36,52.8,0
"2020-05-08 17:18:21+00",14.9,16.9,,51,654,168,47,1009.13,53,0
"2020-05-08 17:23:21+00",17.0,19.0,,51.4,732,306,58,1008.68,53.3,0
"2020-05-08 17:28:21+00",18.4,20.4,,51.1,772,337,45,1008.67,53.3,0
"2020-05-08 17:33:21+00",17.6,19.6,,51.1,790,154,63,1008.6,53.3,0
"2020-05-08 17:38:21+00",17.1,19.1,,51.3,790,33,54,1008.87,53.4,0
"2020-05-08 17:43:21+00",16.4,18.4,,51,712,213,70,1008.6,53.4,0
"2020-05-08 17:48:21+00",18.3,20.3,,50.8,784,315,23,1008.32,53.1,0
"2020-05-08 17:53:21+00",18.3,21.3,,51,827,230,62,1008.23,53.2,0
"2020-05-08 17:58:21+00",19.2,23.2,,50.9,851,111,66,1008.08,53.3,0
"2020-05-08 18:03:21+00",19.3,22.3,,51,875,138,56,1008.13,53.4,0
"2020-05-08 18:08:21+00",19.5,21.5,,50.7,849,244,47,1008.16,53.1,0
"2020-05-08 18:13:21+00",14.7,16.7,,51,645,150,61,1008.13,52.9,0
"2020-05-08 18:18:21+00",15.8,17.8,,50.7,708,22,35,1008.57,52.4,0
"2020-05-08 18:23:21+00",16.4,17.4,,50.2,732,104,38,1008.45,51.3,0
"2020-05-08 18:28:21+00",18.2,20.2,,49.1,814,122,53,1008.1,49.6,0
"2020-05-08 18:33:21+00",17.6,19.6,,48.9,774,237,57,1007.82,48.7,0
"2020-05-08 18:38:21+00",18.5,20.5,,49.3,824,187,49,1007.81,48.6,0
"2020-05-08 18:43:21+00",20.4,21.4,,49.9,915,160,63,1007.52,49.2,0
"2020-05-08 18:48:21+00",19.4,22.4,,49.9,870,219,41,1007.31,49.5,0
"2020-05-08 18:53:21+00",19.4,21.4,,49.9,870,94,39,1007.2,49.7,0
"2020-05-08 18:58:21+00",18.5,20.5,,49.8,811,197,40,1007.17,49.8,0
"2020-05-08 19:03:21+00",17.8,20.8,,49.8,771,246,43,1007.16,49.9,0
"2020-05-08 19:08:21+00",15.2,18.2,,50,633,319,32,1007.21,50.3,0
"2020-05-08 19:13:21+00",17.0,20.0,,50.3,727,289,60,1006.76,50.9,0
"2020-05-08 19:18:21+00",17.9,20.9,,50.5,800,210,65,1006.74,51.6,0
"2020-05-08 19:23:21+00",15.4,18.4,,50.6,687,169,60,1006.6,51.8,0
"2020-05-08 19:28:21+00",18.1,20.1,,50.4,777,304,41,1006.59,51.8,0
"2020-05-08 19:33:21+00",14.4,16.4,,50.4,628,116,42,1006.87,51.6,0
"2020-05-08 19:38:21+00",14.6,16.6,,50.2,635,220,43,1006.88,51.5,0
"2020-05-08 19:43:21+00",13.5,14.5,,50.2,586,178,34,1006.91,51.3,0
"2020-05-08 19:48:21+00",10.5,13.5,,50.3,373,283,35,1007.31,51.3,0
"2020-05-08 19:53:21+00",9.1,10.1,,50.3,370,175,37,1007.29,51.2,0
"2020-05-08 19:58:21+00",9.4,11.4,,50.2,391,180,40,1007.27,51.2,0
"2020-05-08 20:03:21+00",9.9,11.9,,50.2,420,172,24,1007.13,51.1,0
"2020-05-08 20:08:21+00",13.5,14.5,,50.1,582,193,38,1006.73,51,0
"2020-05-08 20:13:21+00",11.2,12.2,,50.1,498,139,38,1006.57,50.9,0
"2020-05-08 20:18:21+00",14.0,15.0,,50,608,177,29,1006.38,50.8,0
"2020-05-08 20:23:21+00",12.0,14.0,,49.8,523,131,48,1006.22,50.4,0
"2020-05-08 20:28:21+00",12.2,15.2,,49.4,539,189,25,1006.17,49.7,0
"2020-05-08 20:33:21+00",12.2,14.2,,49.3,499,262,26,1006,49.4,0
"2020-05-08 20:38:21+00",13.1,16.1,,49.1,538,280,17,1005.82,49,0
"2020-05-08 20:43:21+00",11.9,13.9,,49.1,485,240,30,1005.68,48.9,0
"2020-05-08 20:48:21+00",16.2,18.2,,49,718,234,37,1005.5,48.8,0
"2020-05-08 20:53:21+00",15.3,17.3,,48.8,668,172,59,1005.36,48.7,0
"2020-05-08 20:58:21+00",15.7,17.7,,48.8,699,193,35,1005.36,48.6,0
"2020-05-08 21:03:21+00",14.1,17.1,,48.9,652,43,49,1005.5,48.8,0
"2020-05-08 21:08:21+00",15.1,17.1,,48.8,674,138,58,1005.35,49,0
"2020-05-08 21:13:21+00",15.6,18.6,,48.7,680,206,42,1005.03,49,0
"2020-05-08 21:18:21+00",15.1,17.1,,48.9,677,78,53,1004.85,49.2,0
"2020-05-08 21:23:21+00",17.8,18.8,,48.9,794,151,44,1004.93,49.4,0
"2020-05-08 21:28:21+00",17.1,19.1,,48.9,770,-34,34,1005,49.5,0
"2020-05-08 21:33:21+00",15.3,16.3,,48.9,701,-48,21,1004.94,49.4,0
"2020-05-08 21:38:21+00",17.3,19.3,,49.1,789,-46,41,1004.91,49.5,0
"2020-05-08 21:43:21+00",15.5,17.5,,49.1,712,2,32,1004.71,49.5,0
"2020-05-08 21:48:21+00",14.2,16.2,,49,630,45,64,1004.55,49.5,0
"2020-05-08 21:53:21+00",15.7,17.7,,49.1,699,-145,37,1004.57,49.6,0
"2020-05-08 21:58:21+00",16.6,18.6,,49,747,-148,20,1004.51,49.5,0
"2020-05-08 22:03:21+00",16.6,18.6,,49,756,-74,24,1004.46,49.4,0
"2020-05-08 22:08:21+00",14.9,18.9,,48.9,680,-59,40,1004.36,49.3,0
"2020-05-08 22:13:21+00",15.8,16.8,,48.9,719,-35,23,1004.25,49.3,0
"2020-05-08 22:18:21+00",13.8,15.8,,49.1,617,-103,29,1004.2,49.4,0
"2020-05-08 22:23:21+00",14.1,16.1,,49,626,-136,15,1004.23,49.3,0
"2020-05-08 22:28:21+00",11.8,13.8,,49.1,513,-42,46,1004.18,49.3,0
"2020-05-08 22:33:21+00",13.3,16.3,,49.1,610,-53,15,1003.95,49.3,0
"2020-05-08 22:38:21+00",10.4,12.4,,49.2,457,-106,28,1004,49.4,0
"2020-05-08 22:43:21+00",13.3,14.3,,49.2,587,-93,19,1003.89,49.4,0
"2020-05-08 22:48:21+00",12.8,14.8,,49.3,548,-156,-4,1003.75,49.3,0
"2020-05-08 22:53:21+00",11.6,13.6,,49.3,529,-95,1,1003.7,49.4,0
"2020-05-08 22:58:21+00",12.7,13.7,,49.5,553,-178,-6,1003.52,49.5,0
"2020-05-08 23:03:21+00",11.3,12.3,,49.5,489,-137,1,1003.49,49.5,0
"2020-05-08 23:08:21+00",9.0,10.0,,49.6,380,-153,10,1003.49,49.6,0
"2020-05-08 23:13:21+00",6.8,7.8,,50,238,-170,3,1003.45,49.8,0
"2020-05-08 23:18:21+00",6.6,7.6,,50.3,189,-215,-6,1003.46,50,0
"2020-05-08 23:23:21+00",6.5,7.5,,50.8,133,-241,2,1003.36,50.4,0
"2020-05-08 23:28:21+00",7.8,9.8,,51.3,185,-277,-1,1003.17,50.8,0
"2020-05-08 23:33:21+00",8.9,9.9,,51,294,-273,-1,1003.03,50.9,0
"2020-05-08 23:38:21+00",9.3,11.3,,51,291,-294,-3,1002.79,50.8,0
"2020-05-08 23:43:21+00",9.3,10.3,,50.9,279,-299,-3,1002.68,50.8,0
"2020-05-08 23:48:21+00",10.4,11.4,,50.8,290,-343,1,1002.62,50.7,0
"2020-05-08 23:53:21+00",8.6,10.6,,50.9,261,-272,-7,1002.55,50.7,0
"2020-05-08 23:58:21+00",8.8,9.8,,50.9,228,-295,-15,1002.43,50.7,0
